Skip Page Navigation
NASA JPL Caltech
NASA Logo - Jet Propulsion Laboratory + View the NASA Portal
+ Near-Earth Object (NEO) Program
Search JPL
JPL Home Earth Solar System Stars & Galaxies Technology
JPL Solar System Dynamics
BODIES ORBITS EPHEMERIDES TOOLS PHYSICAL DATA DISCOVERY FAQ SITE MAP
JPL Small-Body Database Browser
Search: [ help ]  
79286 (1995 SQ53)
Classification: Main-belt Asteroid          SPK-ID: 2079286
Ephemeris | Orbit Diagram | Orbital Elements | Physical Parameters | Discovery Circumstances ]

[ show orbit diagram ]
Orbital Elements at Epoch 2457000.5 (2014-Dec-09.0) TDB
Reference: JPL 13 (heliocentric ecliptic J2000)
 Element Value Uncertainty (1-sigma)   Units 
e .17353834805571 7.0437e-08  
a 2.320682485337799 1.5572e-08 AU
q 1.917955080470458 1.6116e-07 AU
i 8.008686197153111 7.1262e-06 deg
node 35.85641409306412 4.6856e-05 deg
peri 18.2672921400938 5.3093e-05 deg
M 140.6076979850302 2.3737e-05 deg
tp 2456496.153964868578
(2013-Jul-22.65396487)
8.3235e-05 JED
period 1291.28472515525
3.54
1.2997e-05
3.558e-08
d
yr
n .2787921153150152 2.8061e-09 deg/d
Q 2.72340989020514 1.8274e-08 AU
  Orbit Determination Parameters
   # obs. used (total)      676  
   data-arc span      7183 days (19.67 yr)  
   first obs. used      1995-09-28  
   last obs. used      2015-05-29  
   planetary ephem.      DE431  
   SB-pert. ephem.      SB431-BIG16  
   condition code      0  
   fit RMS      .57029  
   data source      ORB  
   producer      Otto Matic  
   solution date      2015-Jun-04 18:45:09  

Additional Information
 Earth MOID = .930186 AU 
 T_jup = 3.545 
[ show covariance matrix ]

Ephemeris | Orbit Diagram | Orbital Elements | Physical Parameters | Discovery Circumstances ]

Physical Parameter Table
Parameter Symbol Value Units Sigma Reference Notes
absolute magnitude H 15.0 mag n/a MPO280271  

79286 (1995 SQ53)          Discovered 1995-Sep-28 by BAO Schmidt CCD Asteroid Program at Xinglong
Reference: 20040504/Numbers.arcLast Updated: 2004-07-16

Alternate Designations
 1995 SQ53 = 2000 EY34 
Ephemeris | Orbit Diagram | Orbital Elements | Physical Parameters | Discovery Circumstances ]
ABOUT SSD CREDITS/AWARDS PRIVACY/COPYRIGHT GLOSSARY LINKS
FirstGov 2015-Jun-30 08:20 UT
(server date/time)  
NASA Home Page
Site Manager:   Ryan S. Park
Webmaster  Alan B. Chamberlin